Location: Moscow
(55.7500°N, 37.5830°E)
Time: 22:30:48
(UTC+03:00)

Vanguard 2 - Pass Details

Date: 30 November 2021
Orbit: 553 x 2936 km, 32.9° (Epoch: 15 January)

Event Time Altitude Azimuth Distance (km) Brightness Sun altitude
Rises 20:12:24 0° 248° (WSW) 4,773 12.3 -33.8°
Reaches altitude 10° 20:19:51 10° 213° (SSW) 4,489 11.6 -34.8°
Maximum altitude 20:21:46 11° 204° (SSW) 4,610 11.6 -35.0°
Drops below altitude 10° 20:23:48 10° 195° (SSW) 4,810 11.6 -35.3°
Enters shadow 20:33:13 - 165° (SSE) 6,313 11.9 -36.6°
